Погода в Ломе

Того     6˚10′05″N   1˚14′36″E
темп.,
°C
ветер,
м/с
пор.,
м/с
влажн.,
%
обл.,
%
осадки,
мм/ч
давл.,
гПа
погр.,
м
6 декабря, вс
вс600:00+27˚юз3678100 0.0 1011466
03:00+26˚юз368186 0.0 1010398
06:00+26˚юз358387 0.0 1011383
09:00+30˚юз346467 0.0 1013898
12:00+33˚ююз434961 0.0 10111505
15:00+32˚ю655619 0.2 10081073
18:00+28˚ююз576911 0.4 1009495
21:00+28˚ююз47750 0.0 1012568
7 декабря, пн
пн700:00+27˚юз47761 0.0 1012638
03:00+27˚юз477815 0.0 1011598
06:00+26˚юз357930 0.1 1012452
09:00+30˚зюз446228 0.0 1014987
12:00+33˚ююз435030 0.0 10121479
15:00+32˚ююз555541 0.6 10101098
18:00+29˚ююз576621 0.6 1011654
21:00+28˚ююз36700 0.0 1013408
8 декабря, вт
вт800:00+27˚юз47770 0.0 1012541
03:00+27˚юз37810 0.0 1010503
06:00+26˚зюз368129 0.0 1012473
09:00+30˚юз346668 0.0 1014903
12:00+31˚ююз445975 0.1 10121094
15:00+31˚ююз445878 0.9 10101077
18:00+29˚ююз576854 1.0 1010587
21:00+28˚юз47730 0.0 1013445
9 декабря, ср
ср900:00+27˚юз48780 0.0 1012595
03:00+27˚юз368119 0.0 1011617
06:00+26˚юз368041 0.1 1012475
09:00+30˚ююз456339 0.1 10131011
12:00+32˚ююз445567 0.2 10121147
15:00+30˚ююз556093 0.3 1009954
18:00+28˚ююз466768 0.4 1011585
21:00+27˚юз36740 0.0 1013442
10 декабря, чт
чт1000:00+27˚юз37760 0.0 1012484
03:00+27˚юз47790 0.0 1011599
06:00+26˚юз368115 0.1 1012461
09:00+29˚юз456990 0.2 1013843
12:00+32˚ююз445578 0.3 10111174
15:00+31˚ююз555766 0.1 10091075
18:00+28˚ююз466648 0.1 1009556
21:00+27˚юз47743 0.0 1011463